Wind_Speed
43 48 53 52 48 34 30 26 35 39 41 41 37 31 33 52 44 39 38 42 42 42 47 44 45 36 37 39 41 42 43 50 53 56 57 60 61 60 62 65 61 57 53
31 36 41 40 42 62 49 49 35 43 44 46 40 41 42 38 29 48 38 46 51 52 43 44 38 40 41 44 46 49 56 60 59 61 65 66 68 69 67 63 59 55 51
33 37 40 47 52 55 55 54 33 45 47 51 45 38 44 33 40 44 43 56 59 49 47 45 44 49 52 56 58 64 68 67 64 64 67 69 70 68 67 64 55 51 51
38 42 45 47 50 54 43 42 43 44 44 37 34 42 45 44 46 47 53 51 43 45 48 49 50 55 61 65 69 72 71 69 66 66 66 65 63 59 49 44 46 46 47
43 47 48 49 50 49 44 51 38 36 38 35 45 45 45 44 46 45 46 47 48 48 52 56 60 63 64 66 66 64 63 61 59 55 49 44 43 46 46 48 47 46 46
46 48 47 44 44 44 40 37 34 40 42 40 41 47 47 41 40 42 42 45 50 55 60 63 63 63 61 59 60 59 55 47 42 44 45 45 46 46 50 46 42 40 41
40 43 44 44 44 45 41 39 40 40 38 38 36 33 35 38 42 45 49 54 58 61 63 62 59 60 60 59 56 46 41 43 46 49 49 44 40 39 41 41 39 36 36
37 40 43 46 45 41 39 38 36 30 28 31 35 37 40 41 46 51 55 57 58 58 58 58 59 56 53 51 43 38 43 45 42 35 32 29 29 32 33 31 31 32 32
37 39 41 41 40 36 31 25 26 30 32 35 38 42 46 48 51 52 52 53 56 57 57 52 49 47 45 38 36 38 41 38 38 38 35 33 32 33 32 29 28 28 28
39 41 41 38 35 32 27 29 30 33 37 42 44 44 44 46 47 49 52 55 52 48 41 40 40 38 35 34 34 35 36 37 37 36 35 36 35 34 32 30 28 27 27
36 31 36 35 34 33 31 35 36 37 40 43 40 39 42 46 50 51 49 46 40 37 37 36 34 33 33 32 31 32 31 28 27 27 28 29 30 30 29 27 26 27 29
30 38 37 34 30 29 29 30 37 40 39 38 41 43 46 45 42 41 41 38 36 34 34 34 34 33 31 27 24 26 27 26 25 26 26 28 28 28 27 27 27 27 26
37 43 39 34 26 31 33 33 32 32 34 38 40 37 34 33 35 36 35 33 30 27 29 29 25 20 21 23 23 22 24 26 27 28 28 27 26 25 23 22 21 21 22
32 30 22 28 29 29 30 30 33 36 36 33 27 26 27 29 32 32 30 26 21 19 16 16 18 17 16 18 21 25 27 28 28 27 26 24 22 19 16 14 16 16 16
21 26 26 28 27 26 30 32 30 26 19 19 21 24 28 28 24 23 22 19 18 18 17 15 17 19 21 24 27 30 32 33 30 24 19 16 14 15 15 16 16 16 16
20 22 21 23 25 27 27 24 16 15 15 19 24 24 22 22 20 20 20 20 19 18 17 17 18 20 24 27 31 35 32 25 19 16 16 16 16 19 20 19 17 16 12
15 19 24 24 23 21 15 11 10 12 16 18 18 18 19 20 20 20 18 18 17 17 17 19 21 25 27 31 33 27 23 22 20 20 22 24 24 25 21 16 11 10 5
18 20 22 21 14 11 9 10 11 14 13 16 17 18 19 20 20 20 19 18 16 15 17 20 23 25 29 32 25 22 22 20 19 21 24 29 36 32 21 7 5 5 6
20 19 13 11 9 7 9 10 11 10 12 15 19 21 21 20 20 19 18 18 18 17 16 19 23 25 27 28 20 18 17 16 15 20 26 32 37 34 23 14 9 6 5
14 14 12 8 8 7 8 8 9 9 12 15 19 18 19 18 18 18 17 17 16 16 18 20 22 25 26 27 20 17 18 17 13 19 23 29 36 37 25 19 16 9 10
15 13 8 8 8 8 7 9 11 12 15 16 16 14 14 16 18 18 17 16 17 18 19 20 21 23 24 25 22 16 15 16 14 14 18 23 28 34 33 25 21 19 16
15 13 9 8 8 9 10 12 12 13 14 13 13 14 14 15 16 17 18 19 19 19 19 21 19 20 22 24 24 21 17 14 15 16 16 18 22 26 28 29 21 17 18
14 16 18 18 18 18 19 19 19 19 20 20 20 19 19 18 17 16 16 17 18 19 19 20 20 20 21 23 24 23 22 18 15 15 16 18 19 19 20 21 24 18 13
12 14 14 15 16 18 19 21 21 22 21 21 21 21 21 21 21 22 22 22 21 20 19 19 20 21 21 20 21 23 23 21 21 19 16 15 14 15 15 15 16 18 18
8 9 9 12 14 14 15 16 16 16 17 17 18 19 19 19 20 21 22 22 23 23 24 23 22 20 20 21 22 21 21 23 22 20 20 17 14 11 9 11 11 12 15
4 5 7 10 11 13 14 15 15 14 14 15 16 17 17 18 19 19 20 20 21 21 22 23 23 24 24 22 21 21 22 21 21 23 21 19 18 16 12 9 9 8 9
Wind_Direction
264 267 262 254 253 256 253 307 309 312 312 310 311 307 306 299 291 290 268 293 286 295 300 300 295 288 292 292 289 285 284 290 289 284 279 280 281 281 283 283 282 280 277
264 274 290 234 243 304 313 314 300 305 305 304 303 298 305 281 268 308 288 276 295 299 295 296 279 285 292 290 285 288 290 289 284 282 280 280 283 287 288 288 285 280 277
282 285 290 295 301 301 307 298 290 296 301 301 295 296 313 286 305 297 287 293 294 293 291 290 289 284 289 293 291 291 293 289 285 284 283 283 285 288 287 287 285 282 278
281 283 287 289 294 301 306 321 301 302 305 306 289 304 303 295 291 292 296 297 291 293 293 293 290 287 289 292 292 292 293 293 291 289 287 286 285 286 281 284 284 278 274
281 284 290 296 297 303 314 316 314 303 304 289 291 297 299 296 295 293 293 291 290 293 293 295 294 293 293 293 294 295 295 295 294 293 294 294 290 286 287 290 283 274 270
285 287 290 293 296 297 305 305 296 296 293 293 287 290 289 287 285 287 290 293 293 293 294 295 297 299 299 299 299 300 300 296 296 294 293 291 288 287 288 282 281 280 272
284 288 290 292 293 296 296 294 293 292 296 290 289 284 286 290 291 292 291 291 294 297 299 300 300 299 300 299 298 296 291 294 299 299 298 296 296 295 290 285 281 279 275
286 288 290 292 296 297 297 293 292 296 300 297 293 294 295 295 294 293 295 298 298 299 299 299 300 299 300 299 301 297 296 299 305 310 310 308 306 299 296 292 282 279 276
287 288 289 292 299 306 303 288 295 297 295 293 292 293 295 298 298 298 298 299 299 299 301 301 303 304 303 303 299 301 303 300 301 301 301 302 302 298 296 293 286 279 273
288 292 300 303 301 304 295 286 293 293 293 296 297 298 298 296 298 298 298 299 301 301 298 301 305 310 301 301 303 304 304 301 297 294 296 298 297 294 291 286 279 274 269
292 304 305 300 300 297 293 287 285 289 298 299 300 301 302 303 304 304 302 302 303 306 309 314 312 309 311 309 310 309 309 308 305 303 299 298 298 297 296 291 284 276 269
273 309 307 301 303 299 292 293 298 299 303 305 305 308 308 309 307 307 307 307 306 308 313 313 313 314 315 314 315 316 315 317 318 314 310 307 304 302 298 292 288 282 275
287 305 309 301 289 297 296 295 299 303 308 311 314 315 317 322 325 324 323 317 315 311 317 319 320 325 326 324 322 323 323 323 320 317 314 310 307 304 302 297 293 290 286
299 296 299 291 296 304 306 307 310 316 314 315 321 332 337 337 337 334 331 337 336 342 348 344 335 331 328 324 326 331 327 324 321 319 315 312 311 312 316 313 309 304 294
308 303 307 302 302 308 305 306 313 315 323 335 344 346 349 345 347 353 360 1 357 355 349 349 350 348 342 341 338 332 330 327 326 325 326 326 332 333 336 333 331 325 315
299 298 300 298 304 306 310 321 330 337 348 349 348 344 341 345 347 346 349 352 358 358 354 3 357 350 349 345 341 340 344 350 359 9 15 11 3 344 328 319 318 329 323
300 301 302 310 313 316 328 340 349 359 355 354 354 352 349 355 0 3 0 360 0 358 1 1 359 356 356 354 355 5 18 34 43 47 44 27 5 343 321 303 308 333 325
313 315 322 321 323 334 354 1 350 346 360 358 356 353 357 1 1 2 5 8 6 4 4 4 2 3 3 3 13 27 42 47 56 47 31 20 11 2 3 4 350 17 44
330 332 336 331 342 353 346 341 342 356 3 360 356 356 358 359 355 359 1 2 7 5 0 4 8 8 9 11 20 31 38 42 52 36 25 26 21 20 31 42 40 54 27
346 341 342 355 347 339 348 353 352 353 348 347 351 354 356 360 0 360 360 2 1 5 3 3 5 9 12 17 20 23 29 33 36 29 23 23 23 25 28 30 31 36 38
11 346 345 348 345 350 349 347 340 336 336 338 341 355 4 8 11 10 6 4 7 7 6 2 4 9 12 18 21 19 20 22 18 15 18 18 20 24 29 35 44 50 66
46 34 10 343 332 329 329 330 335 340 350 2 8 6 5 1 4 9 13 15 12 10 10 11 13 13 14 17 21 20 14 12 10 10 7 7 11 21 27 34 40 49 55
57 54 53 54 54 52 51 52 51 48 44 41 38 34 29 24 18 13 11 12 15 18 18 17 16 16 18 18 19 19 20 13 4 3 8 10 13 15 24 29 39 42 48
62 58 55 54 51 50 48 47 45 43 41 38 38 36 35 34 33 33 33 30 26 21 16 16 17 18 17 15 16 19 18 18 19 11 2 360 12 18 17 24 29 41 45
60 59 52 48 44 37 32 29 25 25 24 26 25 24 25 24 24 25 26 26 26 26 27 25 21 16 15 18 18 15 14 16 17 19 19 12 5 10 12 7 17 21 27
343 357 7 16 14 9 8 7 7 8 9 10 11 10 10 11 13 13 14 15 16 18 20 22 22 21 21 18 14 14 16 16 14 17 19 20 20 17 15 6 353 2 10
Height
5830 5825 5814 5808 5811 5799 5795 5798 5802 5803 5802 5801 5798 5794 5789 5786 5782 5783 5779 5774 5771 5770 5768 5763 5760 5756 5751 5747 5742 5739 5735 5732 5729 5726 5721 5715 5711 5707 5703 5700 5697 5695 5694
5812 5806 5807 5766 5780 5780 5791 5798 5794 5793 5792 5790 5788 5785 5784 5778 5773 5772 5771 5768 5764 5761 5756 5753 5749 5745 5739 5735 5731 5726 5721 5716 5713 5709 5704 5697 5690 5685 5682 5680 5678 5676 5676
5813 5810 5806 5799 5799 5797 5792 5786 5783 5783 5783 5779 5776 5775 5773 5771 5766 5764 5762 5759 5754 5749 5746 5741 5736 5730 5725 5720 5714 5710 5705 5700 5695 5690 5685 5679 5673 5668 5664 5661 5659 5657 5656
5808 5804 5801 5800 5796 5791 5789 5780 5777 5775 5775 5770 5769 5766 5763 5760 5757 5754 5749 5744 5740 5736 5732 5727 5722 5717 5710 5704 5698 5691 5685 5678 5673 5669 5664 5660 5655 5651 5648 5645 5642 5640 5638
5800 5796 5791 5787 5787 5784 5781 5778 5773 5770 5769 5765 5761 5755 5751 5747 5744 5740 5737 5733 5729 5725 5720 5715 5709 5702 5695 5687 5679 5672 5665 5660 5654 5650 5645 5642 5638 5634 5632 5628 5627 5624 5621
5792 5788 5786 5783 5779 5775 5772 5769 5763 5760 5756 5754 5750 5745 5740 5736 5732 5729 5725 5721 5717 5711 5706 5697 5690 5683 5675 5668 5661 5655 5649 5643 5639 5635 5632 5628 5623 5618 5615 5610 5610 5610 5609
5789 5783 5778 5774 5771 5768 5764 5759 5754 5750 5745 5741 5737 5733 5730 5725 5722 5719 5714 5708 5702 5695 5688 5682 5673 5667 5661 5654 5648 5641 5635 5630 5626 5622 5617 5613 5610 5604 5601 5599 5597 5596 5597
5780 5775 5770 5766 5762 5759 5754 5749 5744 5740 5736 5734 5730 5725 5721 5717 5712 5706 5700 5693 5686 5681 5675 5668 5661 5653 5647 5640 5634 5629 5625 5619 5615 5610 5605 5603 5599 5596 5592 5590 5587 5586 5587
5769 5766 5762 5758 5754 5749 5744 5740 5737 5734 5731 5726 5722 5718 5713 5706 5700 5694 5687 5680 5674 5669 5663 5653 5648 5642 5635 5629 5625 5619 5614 5610 5606 5602 5598 5593 5590 5587 5584 5582 5579 5579 5579
5759 5755 5751 5747 5743 5739 5736 5734 5730 5727 5723 5719 5713 5707 5700 5695 5689 5683 5677 5670 5663 5657 5651 5645 5638 5632 5626 5621 5616 5611 5607 5602 5597 5592 5588 5584 5581 5579 5576 5573 5572 5571 5571
5746 5745 5742 5739 5735 5731 5728 5725 5722 5718 5715 5710 5703 5697 5690 5684 5677 5670 5663 5657 5650 5645 5641 5635 5629 5624 5618 5614 5608 5604 5600 5595 5590 5584 5580 5576 5573 5569 5566 5564 5562 5561 5562
5737 5735 5733 5731 5726 5724 5722 5717 5713 5708 5703 5699 5694 5686 5680 5673 5666 5659 5652 5646 5639 5636 5631 5626 5621 5617 5612 5607 5603 5600 5596 5589 5583 5578 5573 5569 5565 5562 5558 5555 5553 5552 5552
5729 5726 5724 5722 5720 5716 5713 5710 5705 5700 5695 5690 5682 5677 5670 5663 5656 5649 5641 5636 5633 5629 5624 5620 5617 5613 5609 5604 5601 5596 5590 5584 5578 5572 5567 5563 5559 5554 5550 5548 5545 5543 5542
5721 5720 5718 5717 5712 5707 5705 5701 5695 5690 5687 5681 5676 5669 5663 5657 5650 5643 5637 5630 5628 5624 5621 5619 5616 5612 5608 5604 5599 5592 5585 5579 5573 5568 5562 5556 5552 5549 5546 5543 5540 5538 5536
5716 5715 5711 5709 5706 5701 5697 5694 5690 5686 5680 5675 5670 5665 5659 5655 5651 5644 5637 5634 5629 5625 5622 5619 5615 5610 5606 5600 5594 5587 5579 5572 5565 5560 5556 5553 5550 5547 5544 5541 5537 5534 5531
5712 5709 5706 5705 5699 5694 5691 5688 5684 5680 5676 5672 5667 5664 5661 5656 5649 5644 5638 5634 5629 5626 5623 5618 5615 5610 5605 5598 5591 5581 5573 5565 5561 5558 5556 5553 5550 5546 5542 5537 5534 5531 5529
5708 5705 5702 5697 5692 5689 5687 5684 5681 5677 5674 5670 5668 5664 5660 5653 5650 5644 5640 5635 5631 5628 5624 5619 5614 5609 5603 5595 5587 5579 5573 5569 5565 5562 5559 5555 5551 5543 5536 5531 5530 5528 5526
5703 5699 5695 5692 5689 5685 5683 5681 5679 5677 5674 5671 5667 5664 5658 5653 5648 5644 5640 5636 5632 5628 5624 5619 5614 5608 5602 5595 5588 5582 5577 5573 5569 5566 5562 5557 5549 5538 5531 5529 5529 5527 5526
5697 5695 5692 5690 5687 5685 5683 5680 5679 5675 5673 5671 5667 5662 5657 5653 5648 5644 5640 5636 5632 5628 5624 5619 5614 5608 5602 5596 5590 5585 5580 5576 5573 5570 5565 5559 5552 5543 5536 5533 5531 5529 5528
5696 5693 5690 5687 5685 5684 5682 5681 5678 5675 5673 5670 5666 5661 5657 5653 5649 5644 5640 5636 5633 5629 5624 5618 5614 5609 5603 5597 5592 5588 5583 5579 5576 5573 5568 5562 5557 5550 5543 5539 5535 5532 5529
5694 5691 5689 5687 5686 5684 5682 5680 5677 5674 5672 5669 5665 5661 5657 5654 5649 5645 5641 5637 5632 5628 5623 5618 5614 5610 5604 5599 5594 5590 5586 5582 5578 5575 5571 5566 5561 5556 5550 5544 5540 5537 5534
5696 5692 5690 5688 5687 5685 5682 5678 5675 5672 5669 5666 5663 5660 5657 5653 5649 5645 5641 5637 5632 5628 5624 5619 5615 5611 5606 5600 5596 5591 5587 5583 5580 5576 5573 5569 5565 5561 5556 5551 5547 5543 5541
5697 5694 5693 5690 5688 5686 5682 5679 5676 5673 5670 5666 5664 5660 5657 5653 5649 5645 5642 5637 5633 5629 5625 5621 5616 5612 5607 5602 5597 5593 5589 5584 5581 5577 5574 5571 5568 5565 5561 5558 5553 5549 5546
5699 5697 5696 5694 5691 5688 5685 5681 5678 5675 5673 5671 5667 5664 5660 5656 5652 5648 5643 5639 5634 5630 5626 5622 5617 5613 5609 5604 5600 5595 5590 5586 5582 5578 5574 5572 5569 5567 5564 5561 5559 5555 5552
5701 5700 5699 5696 5692 5690 5687 5684 5681 5678 5675 5672 5669 5666 5662 5658 5654 5649 5645 5641 5636 5632 5628 5623 5619 5614 5610 5606 5601 5597 5593 5589 5584 5580 5577 5572 5569 5567 5566 5563 5561 5559 5556
5702 5700 5697 5694 5692 5689 5687 5684 5681 5678 5676 5672 5669 5666 5662 5659 5654 5650 5646 5642 5638 5634 5630 5625 5621 5616 5612 5608 5604 5600 5595 5591 5587 5583 5579 5576 5572 5568 5566 5564 5562 5560 5558